This demonstration page uses our WeatherBlox Daily Observations layout. Learn more.

Hourly Observations for December 11, 2019

Temp ( °F °C ) Dew Point ( °F °C ) Humidity (%) Winds ( mph kmh ) Pressure ( in mb ) Visibility ( mi km ) Precip ( " mm )
12:15 am 00:15 Clear 27 -2.7 24 -4.7 86 86 SW 10 17 30.35 1028 10 16.0934 0 0
12:35 am 00:35 Clear 26 -3.2 23 -5 88 88 SW 10 17 30.36 1028 10 16.0934 0 0
12:55 am 00:55 Clear 27 -3 23 -5 86 86 WSW 9 15 30.35 1028 10 16.0934 0 0
1:15 am 01:15 Clear 27 -2.7 23 -4.9 85 85 WSW 9 15 30.35 1028 10 16.0934 0 0
1:35 am 01:35 Clear 28 -2.3 23 -5 82 82 WSW 14 22 30.35 1028 10 16.0934 0 0
1:55 am 01:55 Clear 28 -2 23 -5 80 80 WSW 14 22 30.35 1028 10 16.0934 0 0
2:15 am 02:15 Clear 29 -1.9 23 -5.1 79 79 WSW 12 19 30.33 1027 10 16.0934 0 0
2:35 am 02:35 Clear 28 -2 23 -5.1 80 80 WSW 10 17 30.32 1027 10 16.0934 0 0
2:55 am 02:55 Clear 28 -2.4 22 -5.3 81 81 WSW 9 15 30.33 1027 10 16.0934 0 0
3:15 am 03:15 Clear 27 -2.8 22 -5.5 82 82 WSW 8 13 30.33 1027 10 16.0934 0 0
3:35 am 03:35 Clear 27 -2.6 22 -5.5 81 81 WSW 9 15 30.32 1027 10 16.0934 0 0
3:55 am 03:55 Clear 27 -2.6 22 -5.5 81 81 WSW 10 17 30.32 1027 10 16.0934 0 0
4:15 am 04:15 Clear 28 -2.5 22 -5.5 80 80 WSW 9 15 30.31 1026 10 16.0934 0 0
4:35 am 04:35 Clear 27 -2.7 22 -5.6 81 81 WSW 8 13 30.32 1027 10 16.0934 0 0
4:55 am 04:55 Clear 28 -2.5 22 -5.5 80 80 WSW 8 13 30.31 1026 10 16.0934 0 0
5:15 am 05:15 Clear 28 -2.5 22 -5.5 80 80 W 9 15 30.31 1026 10 16.0934 0 0
5:35 am 05:35 Clear 26 -3.1 22 -5.7 82 82 W 8 13 30.33 1027 10 16.0934 0 0
5:55 am 05:55 Clear 24 -4.2 21 -6.2 86 86 W 8 13 30.34 1027 10 16.0934 0 0
6:15 am 06:15 Clear 24 -4.5 21 -6.3 87 87 W 7 11 30.34 1027 10 16.0934 0 0
6:35 am 06:35 Clear 24 -4.6 20 -6.5 87 87 WNW 3 6 30.35 1028 10 16.0934 0 0
6:55 am 06:55 Clear 23 -5.1 20 -6.6 89 89 W 3 6 30.37 1028 10 16.0934 0 0
7:15 am 07:15 Clear 21 -6 19 -7.4 90 90 NW 5 7 30.38 1029 10 16.0934 0 0
7:35 am 07:35 Clear 20 -6.7 17 -8.2 89 89 N 6 9 30.4 1030 10 16.0934 0 0
7:55 am 07:55 Sunny 20 -6.8 18 -7.6 94 94 N 5 7 30.41 1030 10 16.0934 0 0
8:15 am 08:15 Sunny 21 -6.2 19 -7.1 93 93 N 3 6 30.42 1030 10 16.0934 0 0
8:35 am 08:35 Sunny 22 -5.4 20 -6.4 93 93 N 5 7 30.42 1030 10 16.0934 0 0
8:55 am 08:55 Sunny 24 -4.6 22 -5.7 92 92 NNE 5 7 30.41 1030 10 16.0934 0 0
9:15 am 09:15 Sunny 27 -3 24 -4.5 90 90 NE 10 17 30.41 1030 10 16.0934 0 0
9:35 am 09:35 Sunny 28 -2.5 25 -4 90 90 ENE 13 20 30.41 1030 10 16.0934 0 0
9:55 am 09:55 Sunny 28 -2 26 -3.6 89 89 ENE 14 22 30.41 1030 10 16.0934 0 0
10:15 am 10:15 Sunny 29 -1.9 26 -3.5 89 89 ENE 10 17 30.4 1030 10 16.0934 0 0
10:35 am 10:35 Sunny 30 -1.2 26 -3.3 86 86 E 12 19 30.4 1029 10 16.0934 0 0
10:55 am 10:55 Sunny 30 -0.9 26 -3.1 85 85 E 13 20 30.39 1029 10 16.0934 0 0
11:15 am 11:15 Sunny 31 -0.3 27 -2.9 83 83 E 13 20 30.38 1029 10 16.0934 0 0
11:35 am 11:35 Sunny 32 0 27 -2.7 82 82 E 12 19 30.37 1028 10 16.0934 0 0
11:55 am 11:55 Sunny 32 0.1 27 -2.7 82 82 ESE 13 20 30.35 1028 10 16.0934 0 0
12:15 pm 12:15 Sunny 33 0.7 27 -2.9 77 77 ESE 13 20 30.33 1027 10 16.0934 0 0
12:35 pm 12:35 Sunny 35 1.6 28 -2.4 75 75 ESE 12 19 30.31 1026 10 16.0934 0 0
12:55 pm 12:55 Sunny 36 2 28 -2.4 73 73 SE 10 17 30.29 1026 10 16.0934 0 0
1:15 pm 13:15 Sunny 37 2.6 28 -2.3 70 70 ESE 14 22 30.27 1025 10 16.0934 0 0
1:35 pm 13:35 Sunny 37 3 28 -2.2 69 69 SE 14 22 30.26 1025 10 16.0934 0 0
1:55 pm 13:55 Sunny 38 3.6 28 -2 67 67 SE 15 24 30.23 1024 10 16.0934 0 0
2:15 pm 14:15 Sunny 40 4.2 28 -2.1 64 64 SE 13 20 30.22 1023 10 16.0934 0 0
2:35 pm 14:35 Sunny 40 4.5 28 -2.1 63 63 SE 14 22 30.2 1023 10 16.0934 0 0
2:55 pm 14:55 Sunny 40 4.7 29 -1.9 63 63 SE 13 20 30.19 1022 10 16.0934 0 0
3:15 pm 15:15 Sunny 40 4.5 28 -2.2 62 62 SE 15 24 30.18 1022 10 16.0934 0 0
3:35 pm 15:35 Sunny 40 4.7 28 -2 62 62 SE 15 24 30.17 1022 10 16.0934 0 0
3:55 pm 15:55 Sunny 40 4.3 28 -2 64 64 SE 12 19 30.15 1021 10 16.0934 0 0
4:15 pm 16:15 Sunny 39 4 28 -2.5 63 63 SE 10 17 30.16 1021 10 16.0934 0 0
4:35 pm 16:35 Sunny 37 2.5 27 -2.7 69 69 ESE 9 15 30.16 1021 10 16.0934 0 0
4:55 pm 16:55 Sunny 35 1.6 27 -2.7 73 73 SE 9 15 30.17 1022 10 16.0934 0 0
5:15 pm 17:15 Clear 33 0.6 26 -3.2 76 76 SE 7 11 30.17 1022 10 16.0934 0 0
5:35 pm 17:35 Clear 33 0.5 26 -3.3 76 76 SE 9 15 30.16 1021 10 16.0934 0 0
5:55 pm 17:55 Clear 32 0.2 26 -3.5 76 76 SE 10 17 30.15 1021 10 16.0934 0 0
6:15 pm 18:15 Clear 32 0.2 26 -3.5 76 76 SE 9 15 30.14 1021 10 16.0934 0 0
6:35 pm 18:35 Clear 33 0.3 25 -3.7 75 75 SE 13 20 30.14 1021 10 16.0934 0 0
6:55 pm 18:55 Clear 33 0.7 25 -3.9 72 72 SE 15 24 30.11 1020 10 16.0934 0 0
7:15 pm 19:15 Clear 34 0.9 25 -3.9 71 71 ESE 12 19 30.11 1020 10 16.0934 0 0
7:35 pm 19:35 Clear 33 0.8 25 -4 71 71 SE 13 20 30.11 1020 10 16.0934 0 0
7:55 pm 19:55 Clear 32 0.1 25 -4 74 74 SE 8 13 30.11 1020 10 16.0934 0 0
8:15 pm 20:15 Clear 32 0 25 -3.9 75 75 SSE 8 13 30.1 1019 10 16.0934 0 0
8:35 pm 20:35 Clear 31 -0.6 25 -4.1 77 77 SE 9 15 30.09 1019 10 16.0934 0 0
8:55 pm 20:55 Clear 31 -0.4 25 -3.7 79 79 SSE 7 11 30.08 1019 10 16.0934 0 0
9:15 pm 21:15 Clear 32 0 27 -3 80 80 S 9 15 30.06 1018 10 16.0934 0 0
9:35 pm 21:35 Clear 36 2.2 29 -1.8 75 75 SSE 13 20 30.02 1017 10 16.0934 0 0
9:55 pm 21:55 Clear 37 2.5 29 -1.5 75 75 S 15 24 30.01 1016 10 16.0934 0 0
10:15 pm 22:15 Clear 37 3 30 -1.3 74 74 S 13 20 30.03 1017 10 16.0934 0 0
10:35 pm 22:35 Clear 37 2.6 30 -1.2 76 76 S 13 20 30.01 1016 10 16.0934 0 0
10:55 pm 22:55 Clear 36 2.2 30 -1.2 78 78 S 10 17 30.01 1016 10 16.0934 0 0
11:15 pm 23:15 Clear 36 2.3 30 -1.1 78 78 S 10 17 30.01 1016 10 16.0934 0 0
11:35 pm 23:35 Clear 36 2 30 -1 81 81 S 10 17 30.02 1016 10 16.0934 0 0
11:55 pm 23:55 Clear 35 1.8 30 -0.9 82 82 S 12 19 30.02 1017 10 16.0934 0 0

Powered by AerisWeather